Tracking 30995 objects as of 5-Jul-2025
HD Live streaming from Space Station
objects crossing your sky now

OBJECT P

Track OBJECT P now!
10-day predictions


NORAD ID: 43771
Int'l Code: 2018-099P
Perigee: 500.0 km
Apogee: 517.5 km
Inclination: 97.5 °
Period: 94.6 minutes
Semi major axis: 6879 km
RCS: Unknown
Launch date: December 3, 2018
Source: United States (US)
Launch site: AIR FORCE WESTERN TEST RANGE (AFWTR)
Your satellite tracking list
Your tracking list is empty




NASA's NSSDC Master Catalog

Two Line Element Set (TLE):
1 43771U 18099P   25186.68457453  .00009728  00000-0  43554-3 0  9993
2 43771  97.4765 245.6122 0012769  73.1075 287.1559 15.21402046360643
Source of the keplerian elements: AFSPC